Regional Weather Roundup
Issued by NWS Green Bay, WI

Home | Current Version | Previous Version | Graphics & Text | Print | Product List | Glossary Off
Versions: 1 2 3 4 5 6 7 8 9 10 11 12 13 14 15 16 17 18 19 20 21 22 23 24 25 26 27 28 29 30 31 32 33 34 35 36 37 38 39 40 41 42 43 44 45 46 47 48 49 50

000
ASUS43 KGRB 282300
RWRGRB

NORTH-CENTRAL AND NORTHEAST WISCONSIN REGIONAL WEATHER ROUNDUP
NATIONAL WEATHER SERVICE GREEN BAY WI
600 PM CDT SUN AUG 28 2016

WIZ005-009-010>012-018-019-290000-
NORTH CENTRAL WISCONSIN

CITY           SKY/WX    TMP DP  RH WIND       PRES   REMARKS
IRONWOOD       SUNNY     77  58  51 CALM      30.17S
MANITOWISH WTR NOT AVBL
ARBOR VITAE    NOT AVBL
EAGLE RIVER    NOT AVBL
LAND O LAKES   NOT AVBL
RHINELANDER    SUNNY     77  62  59 SW5       30.21R
PHILLIPS       MOSUNNY   76  63  64 S5        30.17F
ANTIGO         NOT AVBL
TOMAHAWK       NOT AVBL
MERRILL        SUNNY     77  62  61 CALM      30.20S
$$

WIZ013-073-290000-
NORTHEAST WISCONSIN

CITY           SKY/WX    TMP DP  RH WIND       PRES   REMARKS
IRON MOUNTAIN  MOSUNNY   80  58  46 SW6       30.18R
MARINETTE      SUNNY    N/A N/A N/A S6        30.20R
$$

WIZ017-030-035>037-045-290000-
CENTRAL WISCONSIN

CITY           SKY/WX    TMP DP  RH WIND       PRES   REMARKS
MEDFORD        NOT AVBL
WAUSAU         SUNNY     76  62  62 SW5       30.17S
MOSINEE        NOT AVBL
MARSHFIELD     SUNNY     78  64  61 S6        30.18S
WISC RAPIDS    SUNNY     79  66  64 SW7       30.18F
STEVENS POINT  NOT AVBL
WAUPACA        NOT AVBL
SHAWANO        NOT AVBL
CLINTONVILLE   SUNNY     79  61  53 SE5       30.18S
WAUTOMA        NOT AVBL
$$

WIZ038-039-048-051-290000-
FOX VALLEY

CITY           SKY/WX    TMP DP  RH WIND       PRES   REMARKS
NWS GREEN BAY  SUNNY     78  66  66 CALM      30.18S
APPLETON       MOSUNNY   77  61  57 SE7       30.18S
OSHKOSH        SUNNY     77  66  68 E6        30.18F
FOND DU LAC    SUNNY     78  68  71 CALM      30.18F
$$

WIZ022-050-052-290000-
EAST CENTRAL WISCONSIN

CITY           SKY/WX    TMP DP  RH WIND       PRES   REMARKS
EPHRAIM        NOT AVBL
WASHINGTON ISL NOT AVBL
STURGEON BAY   SUNNY     74  63  68 SE6       30.21S
MANITOWOC      NOT AVBL
SHEBOYGAN      SUNNY     73  64  73 VRB5      30.20S
$$

LMZ563-521-522-541>543-290000-
LAKESHORE

STATION/POSITION TIME  TEMP    WIND        PRES    VSBY  WAVE
                       AIR SEA DIR/SP/G                  HT/PER
                 (UTC) (F)     (DEG/KT/KT) (MB)    (MI)  (FT/S)
SHEBOYGAN LKSHOR 2200   67     180/ 10/ 10 1022.2F
KEWAUNEE LKSHORE 2200   67                 1022.1R
NORTHPORT PIER   2200   72     140/  9/ 11 1022.0R
N MID LAKE BUOY  2150   71 72  200/  8/  8 1021.9R         1
CHAMBERS ISLAND  2200   75     170/  4/  8 1022.0R
MENOMINEE LKSHOR 2200   72                 1021.3R
$$



USA.gov is the U.S. government's official web portal to all federal, state and local government web resources and services.